Dewpoint
54 55 56 58 59 60 60 59 59 58 58 57 57 57 56 55 53 53 52 52 50 49 48 49 50 53 44 30 22 24 49 43 18 14 8 9 10 10 8 7 5 7 8 5 7 2 -1
53 53 54 55 55 56 59 60 59 58 57 57 57 56 56 55 54 53 52 52 51 50 48 48 50 53 41 26 14 17 13 11 10 8 6 3 4 8 7 6 6 6 5 2 -1 -1 2
52 52 53 54 55 54 55 55 57 58 58 57 57 56 56 55 54 53 53 52 51 50 48 47 50 44 31 24 11 12 12 10 10 9 7 7 7 7 6 6 5 3 2 1 -1 0 1
49 51 52 53 53 54 54 54 54 55 58 58 57 56 55 55 54 53 52 51 50 49 48 49 51 39 28 29 22 15 13 14 13 10 9 10 13 12 12 12 12 4 1 -0 1 3 4
48 48 49 51 51 52 52 53 53 54 54 56 57 56 55 54 54 53 52 51 50 49 48 50 41 36 32 36 21 19 16 11 13 12 14 10 13 13 13 11 3 2 1 -1 4 4 2
47 47 48 50 49 51 51 52 52 53 53 54 55 57 56 55 54 53 51 49 49 46 37 33 27 26 31 28 23 15 13 11 11 14 14 12 11 10 9 5 3 4 3 3 2 1 0
46 47 47 48 50 49 49 50 51 52 53 54 54 56 56 55 54 52 49 44 35 36 32 35 34 30 21 30 17 11 11 11 11 14 14 15 11 9 9 10 6 5 2 -1 -2 -3 -1
49 49 47 48 48 48 48 50 51 51 52 53 53 54 56 55 54 50 44 39 34 36 33 32 32 34 34 23 17 14 12 10 12 10 14 12 12 13 8 8 5 1 -3 -3 -2 -2 -1
50 50 50 48 48 48 48 50 50 51 52 52 53 52 54 54 50 46 41 38 42 40 30 33 32 32 33 30 22 19 14 12 12 12 12 12 12 10 8 7 5 0 1 1 1 -1 -1
49 50 50 49 49 49 50 50 50 51 52 52 53 52 53 50 48 46 41 41 42 48 38 36 38 38 36 31 27 25 15 13 12 12 11 11 11 10 8 4 4 4 3 2 -1 -2 -4
48 49 49 50 50 50 50 50 51 51 51 52 53 51 50 51 46 44 44 42 47 48 28 35 35 35 37 30 26 25 24 15 15 13 11 10 7 11 8 7 3 2 9 6 2 2 5
47 47 48 48 49 49 49 50 50 50 51 51 52 51 50 48 47 45 44 45 47 35 27 35 24 26 25 29 26 17 23 16 16 13 11 10 11 12 11 7 7 6 5 3 5 9 9
46 47 46 47 48 48 48 49 49 50 50 51 51 51 50 46 44 46 45 45 33 30 37 32 25 19 21 27 25 14 14 12 10 12 12 10 10 11 10 8 8 6 6 6 9 12 11
45 45 45 45 46 47 48 48 48 49 50 50 50 50 50 48 46 45 45 37 29 30 32 32 29 19 18 24 22 14 11 11 11 10 12 11 8 12 10 9 6 9 6 17 10 10 8
43 44 45 46 46 46 46 48 48 48 49 50 49 46 49 50 46 45 41 30 31 28 29 32 26 22 17 17 17 16 15 17 13 15 19 16 10 9 11 10 6 10 11 13 19 13 6
41 43 44 44 45 46 46 46 48 48 49 49 47 46 46 48 47 43 36 32 36 32 27 33 30 22 19 18 16 16 14 16 14 18 21 20 20 10 10 8 8 11 16 15 11 7 3
42 42 43 44 44 44 45 45 46 47 48 48 46 39 45 48 46 38 30 31 34 34 30 31 31 25 20 19 17 15 16 16 16 17 21 19 26 14 13 12 8 11 19 16 17 19 12
41 42 43 43 43 44 44 45 45 45 46 46 43 34 47 47 34 34 33 32 32 30 33 34 33 30 30 25 21 18 20 18 18 19 15 24 28 19 12 13 10 11 15 15 23 10 13
41 42 42 43 43 44 44 44 44 45 46 45 38 38 46 44 29 32 31 30 30 28 31 34 32 30 31 27 25 27 20 22 17 18 23 24 23 16 13 14 14 13 13 16 17 20 20
41 41 42 43 43 43 44 44 45 45 46 46 38 31 35 39 33 29 27 28 29 31 30 31 33 30 28 28 27 27 24 24 25 21 32 31 25 24 18 15 17 16 13 12 20 23 16
40 40 42 41 44 44 44 44 44 45 46 45 38 33 36 29 32 29 29 23 26 28 30 32 33 30 29 29 27 28 24 26 24 31 27 27 23 24 16 10 12 13 11 10 24 22 22
40 41 42 43 44 44 44 44 44 45 46 42 34 34 34 29 31 32 30 28 22 24 28 29 32 31 29 29 28 26 26 28 25 26 24 24 21 18 16 9 -2 -1 12 14 15 14 13
40 42 43 43 43 44 45 45 45 46 45 40 40 38 37 30 31 32 30 27 25 25 28 28 31 30 28 28 29 28 30 29 25 26 28 27 23 15 9 8 4 11 15 14 31 16 16
40 43 43 44 43 45 43 43 43 45 45 41 41 37 36 31 28 30 27 28 24 26 28 30 29 29 29 29 31 30 26 27 26 24 26 25 22 19 13 14 8 10 16 8 8 21 18
42 44 44 44 43 42 42 43 43 43 45 42 41 40 35 31 28 25 27 28 28 28 30 31 30 30 33 33 27 24 24 24 25 23 24 23 22 21 16 14 14 20 21 18 14 16 23
44 44 43 41 40 41 41 42 43 44 44 43 41 39 40 33 28 24 26 28 29 31 32 33 38 35 34 28 27 22 22 21 21 20 20 19 24 22 19 15 17 19 20 21 21 21 26
42 42 41 41 41 42 42 42 43 44 44 43 41 42 39 36 32 29 29 30 30 32 35 37 34 32 34 30 27 27 23 21 17 17 18 19 19 17 18 18 19 23 22 22 16 25 30
42 41 40 41 41 43 43 42 46 47 49 43 41 43 39 38 36 34 33 31 32 35 34 37 31 32 33 32 30 26 24 21 20 19 18 17 18 18 19 19 15 24 23 20 29 30 32
41 41 41 42 43 42 43 43 46 45 45 45 42 45 45 41 38 41 41 40 36 36 34 35 31 32 34 30 28 26 26 27 24 20 21 20 22 22 19 22 31 26 29 30 28 30 30
Lifted_Index
4 4 3 2 1 1 1 1 1 1 1 1 1 1 1 2 3 3 5 7 10 12 13 13 12 11 9 7 8 11 12 12 12 11 11 10 10 9 9 8 7 7 7 7 8 8 8
6 6 5 4 2 2 1 1 1 1 1 1 1 1 1 1 2 2 4 5 8 11 13 13 12 11 8 7 9 11 12 12 12 11 11 10 10 9 9 8 8 7 7 7 8 8 8
8 8 7 6 5 4 3 2 2 2 2 1 1 1 1 1 1 1 2 3 6 8 11 12 12 10 7 7 9 11 12 12 11 11 11 10 10 9 9 8 8 8 7 7 7 8 8
9 9 9 8 8 7 6 5 4 3 2 2 2 2 1 1 1 1 2 2 4 6 10 11 11 9 6 7 9 10 11 11 11 11 11 11 10 10 9 8 7 7 6 6 6 8 8
10 10 10 10 9 9 9 8 6 5 4 3 3 2 2 1 1 2 2 2 3 5 8 10 9 7 5 6 8 10 11 11 11 11 11 11 10 9 8 6 6 6 5 5 6 7 8
11 11 11 10 10 10 10 9 9 7 6 5 4 3 2 2 2 2 2 2 3 4 6 7 6 5 5 6 8 10 11 11 11 10 10 10 9 7 6 6 5 5 5 5 5 7 8
10 10 10 10 10 10 10 10 9 9 8 7 5 4 4 3 3 3 3 2 2 2 3 3 4 4 5 7 9 10 11 10 10 9 8 8 6 5 6 7 6 5 5 5 5 6 7
9 9 10 10 10 10 10 10 9 9 9 8 7 6 5 4 3 3 3 3 3 3 2 2 2 4 5 7 8 10 10 9 8 7 7 7 6 6 7 7 7 7 6 6 6 7 7
8 8 8 9 9 9 9 9 9 9 8 8 8 7 6 5 4 4 4 3 4 4 2 2 2 3 4 6 7 9 9 9 7 6 7 7 7 7 8 8 8 7 7 7 7 7 7
7 7 7 7 8 8 8 8 8 8 8 7 7 7 7 6 5 4 4 4 4 3 2 2 2 3 4 5 6 7 8 8 7 6 7 7 8 8 8 8 8 8 8 8 8 7 6
7 7 7 7 7 7 7 7 7 7 7 7 7 7 7 6 5 5 5 4 3 2 1 2 3 3 3 4 5 6 7 8 7 7 7 7 8 8 8 8 9 9 9 8 8 7 6
6 7 6 6 6 6 6 6 6 6 6 6 6 7 7 7 6 5 5 4 3 1 1 2 3 3 3 4 5 6 7 7 7 6 6 7 8 8 8 9 9 9 8 7 6 5 5
6 6 6 6 6 5 5 5 5 5 5 5 5 6 6 6 6 5 4 3 2 1 1 1 2 3 3 4 5 6 7 6 6 5 5 6 7 8 9 9 9 9 7 5 3 3 2
6 6 6 6 5 5 5 5 4 4 4 4 4 5 5 5 5 5 4 3 2 2 2 1 2 2 3 4 5 6 7 6 6 5 4 4 5 7 9 9 8 8 7 4 2 2 2
6 6 6 5 5 5 5 4 4 4 3 3 3 3 4 4 4 4 3 2 2 3 2 1 1 2 2 3 4 6 6 6 6 6 4 4 4 7 9 9 9 8 7 6 4 2 2
6 6 5 5 5 5 5 4 4 3 3 3 3 3 3 3 3 3 3 2 2 3 2 1 1 1 2 3 4 5 6 6 6 5 5 4 5 6 8 8 8 8 7 6 5 3 2
5 5 5 4 4 4 4 4 4 3 2 2 2 2 2 2 3 3 3 2 2 2 2 1 0 1 2 2 3 4 4 5 5 5 5 5 5 6 7 7 7 7 7 6 5 3 2
5 4 4 3 3 3 3 3 3 3 2 2 1 1 2 2 2 3 3 2 2 2 1 0 0 1 2 2 2 3 4 5 5 5 6 6 5 5 6 7 7 7 7 6 5 4 4
4 4 3 3 2 2 2 3 3 3 2 1 1 1 1 1 2 2 2 2 2 1 1 0 1 1 1 2 2 3 4 4 5 6 6 6 6 5 5 7 7 7 7 6 5 4 4
5 4 3 2 2 2 2 2 2 2 1 1 1 0 1 1 2 2 2 2 2 2 1 1 1 1 1 1 2 2 3 4 5 6 7 7 6 5 5 6 7 7 6 6 6 5 4
4 4 3 2 2 1 1 1 1 1 0 0 0 0 0 1 1 1 1 2 2 2 1 1 1 1 1 1 2 2 3 3 5 6 7 7 6 6 6 7 7 7 6 6 6 5 5
3 3 3 2 2 1 1 1 0 -0 -0 -0 0 -0 -0 -0 1 1 1 1 2 2 1 1 1 1 1 1 2 2 2 3 4 5 6 7 6 6 7 7 7 7 7 6 6 6 6
3 3 3 2 2 2 1 1 0 -0 -0 0 0 -0 -1 -0 0 1 1 2 2 2 1 1 1 0 1 1 1 2 2 3 4 5 6 6 7 7 6 6 6 6 7 7 6 6 6
3 3 3 3 3 2 2 2 2 1 1 1 1 0 -0 -0 1 1 2 2 2 2 1 1 1 1 1 1 1 2 3 4 5 5 6 6 6 6 6 5 5 6 6 6 6 6 6
3 3 3 3 3 4 4 4 4 3 3 2 2 1 0 0 1 1 2 2 2 1 1 0 0 0 1 1 1 2 3 3 4 5 6 6 6 6 6 5 4 5 6 5 5 5 5
3 3 3 4 4 5 5 5 5 5 5 4 4 2 1 1 1 1 2 2 2 1 0 0 0 0 1 1 1 1 2 2 3 4 5 6 6 6 5 4 4 5 5 5 4 4 4
3 4 5 5 5 5 5 5 5 5 5 6 5 3 2 1 1 1 1 2 1 1 0 0 0 1 1 2 2 2 2 2 3 3 5 5 5 5 4 4 4 4 5 4 4 4 4
4 5 5 6 6 5 5 5 5 4 4 6 6 4 2 2 1 1 1 1 1 1 1 1 1 2 2 3 2 2 3 3 3 4 4 5 4 4 4 4 4 4 4 4 4 4 4
5 5 5 6 6 5 5 5 4 4 5 6 5 4 2 2 2 2 1 1 1 1 1 2 2 2 3 3 3 3 3 3 3 4 5 5 4 4 4 3 4 4 4 4 4 4 4